Location: ?????
(31.8092°N, 35.2590°E)
Time: 03:45:56
(UTC+00:00)

Lacrosse 5 - Pass Details

Date: 26 October 2021
Orbit: 714 x 724 km, 57.0° (Epoch: 28 August)

Event Time Altitude Azimuth Distance (km) Brightness Sun altitude
Exits shadow 02:56:07 16° 295° (WNW) 1,843 3.4 -12.2°
Maximum altitude 02:59:31 33° 239° (WSW) 1,202 2.6 -11.5°
Drops below altitude 10° 03:03:59 10° 176° (S) 2,185 4.5 -10.5°
Sets 03:06:32 0° 167° (SSE) 3,100 5.4 -10.0°
